Wind_Speed
93 82 70 62 57 52 48 49 46 37 35 37 40 42 45 46 45 45 46 49 52 53 58 63 70 83 97 101 101 103 102 99 97 92 88 84 75 72
75 60 52 49 46 43 43 43 43 45 47 44 45 46 47 49 50 48 47 47 47 48 49 51 54 60 67 80 91 97 101 101 98 95 88 80 83 81
52 46 46 45 45 44 44 46 47 47 49 45 47 46 45 46 48 50 50 50 48 48 49 48 48 51 56 61 68 77 88 98 97 95 93 85 79 83
44 43 42 42 42 44 47 46 48 48 50 48 41 45 46 47 48 50 51 51 50 50 50 47 49 48 49 53 58 62 68 76 86 88 90 87 88 83
40 41 43 44 43 45 47 48 48 48 45 47 44 45 42 41 40 41 44 46 48 51 50 51 51 49 49 49 50 54 60 67 74 81 83 83 86 85
40 42 45 45 45 47 47 48 48 44 44 44 38 37 40 43 44 44 42 42 42 44 48 50 52 51 50 49 50 50 53 62 71 78 80 82 85 85
40 44 47 46 48 48 47 47 43 43 40 35 36 40 41 43 44 43 43 43 42 42 41 45 51 53 53 51 50 52 51 53 63 72 73 67 79 76
40 44 46 47 46 45 45 42 41 38 33 36 37 37 40 40 40 41 40 39 39 39 41 40 46 49 51 54 52 51 52 52 54 60 68 79 72 73
41 44 44 45 44 44 41 38 37 31 34 34 35 38 37 37 37 36 36 36 35 36 40 37 42 43 47 49 51 52 53 52 53 54 59 70 82 68
41 42 43 43 42 40 36 36 29 29 32 34 36 37 35 34 37 32 28 30 31 29 30 31 36 38 40 42 45 51 54 52 53 53 54 58 78 80
39 40 41 41 40 36 34 31 25 28 29 33 35 34 32 30 30 23 21 20 18 18 22 25 30 33 35 35 38 45 53 54 52 52 52 53 64 90
37 37 38 37 35 33 33 26 23 26 27 31 33 31 29 26 23 17 15 13 13 14 18 21 27 32 34 33 34 40 49 54 52 51 50 50 51 67
34 34 36 35 33 31 31 24 22 24 26 29 29 28 26 23 19 14 10 9 9 13 16 20 25 30 33 34 32 36 44 51 53 49 47 47 47 54
32 33 34 33 32 29 27 22 21 23 24 26 26 26 22 20 18 14 9 7 6 7 10 17 22 26 29 30 31 35 42 46 49 46 44 43 42 49
31 31 33 34 31 30 27 22 19 22 23 24 24 24 21 17 15 13 10 6 3 1 6 11 14 16 19 22 26 30 36 41 42 40 39 38 41 42
29 30 32 33 32 29 26 22 18 19 20 22 22 23 21 15 13 11 8 6 3 2 5 7 10 14 17 19 22 26 30 33 34 32 35 36 35 41
28 29 30 32 33 30 27 23 18 17 18 18 19 20 20 16 10 7 6 3 3 3 6 9 11 13 15 19 23 25 27 28 30 31 30 31 33 37
27 28 28 30 32 31 28 24 20 17 16 17 17 17 18 16 12 7 5 4 3 3 5 8 11 13 15 17 20 22 24 26 28 28 29 30 31 34
25 26 26 28 29 30 29 25 21 18 16 16 15 14 14 15 13 8 4 3 5 6 8 10 12 14 15 16 18 19 21 24 26 27 28 30 30 32
26 25 25 26 27 28 29 27 22 19 16 15 14 13 12 12 11 8 5 1 2 5 7 10 12 14 14 15 15 15 16 17 18 19 21 25 28 30
26 25 25 26 25 26 27 29 26 21 18 15 14 13 12 10 9 7 4 1 3 6 8 12 13 14 14 12 11 11 11 12 13 14 15 17 18 18
27 26 26 26 25 25 26 27 28 25 19 17 16 15 14 11 10 9 6 6 6 7 9 11 13 14 13 12 11 11 11 12 13 14 16 17 17 18
27 27 27 27 25 26 26 25 26 27 24 18 16 16 17 16 14 12 12 11 11 11 12 14 15 15 15 14 14 13 13 13 14 15 16 16 16 17
Wind_Direction
307 306 303 301 300 298 295 293 299 298 290 288 287 286 283 282 280 278 273 266 264 260 256 252 250 249 245 244 242 239 236 234 234 234 233 232 230 231
306 303 302 302 302 301 300 299 298 297 293 292 289 285 282 281 279 276 273 270 265 260 256 251 247 245 244 245 246 243 240 237 235 234 232 229 230 228
302 302 301 301 300 300 300 299 298 298 296 295 292 288 284 281 280 278 274 269 264 260 255 251 246 242 240 239 239 240 241 239 237 235 234 228 228 227
298 303 305 306 304 302 303 302 302 301 300 298 296 292 289 284 279 275 272 269 265 259 255 250 244 239 237 236 235 233 230 231 234 234 234 232 228 223
301 306 310 310 306 306 306 304 303 304 301 301 301 297 294 290 285 281 276 270 264 259 253 246 244 239 235 234 233 232 228 226 222 222 226 226 228 228
303 308 310 311 309 308 306 306 306 305 304 303 302 298 295 291 287 283 277 274 271 265 254 245 241 237 234 231 231 230 227 225 223 220 217 219 222 225
305 308 312 311 310 310 310 309 308 308 306 303 302 300 297 291 286 281 276 271 267 266 265 247 239 234 232 230 228 228 226 224 225 224 218 211 218 223
308 311 310 311 311 310 310 309 309 308 305 306 307 305 302 296 290 285 278 270 266 262 261 256 241 233 230 230 227 226 226 224 224 226 223 216 211 205
311 311 312 312 313 312 311 311 311 307 309 308 311 311 308 302 298 288 283 276 268 262 263 252 238 231 228 227 225 224 225 222 223 223 224 222 208 207
313 313 314 315 315 313 313 313 306 308 310 313 317 317 313 307 305 301 288 276 270 264 253 239 232 226 226 224 222 221 223 223 221 223 223 220 215 215
315 316 318 319 319 315 314 313 305 310 313 319 322 320 319 315 310 303 288 281 269 252 241 231 225 218 217 217 219 220 220 222 220 221 223 222 219 217
316 320 322 322 320 317 318 313 306 312 318 324 327 324 325 322 324 311 296 284 265 244 231 224 218 214 214 218 218 219 219 220 221 220 221 222 221 222
318 322 325 326 326 323 322 313 309 315 322 328 331 331 329 331 330 325 308 287 256 239 226 218 216 215 216 221 223 221 217 217 220 220 221 220 222 220
319 323 330 332 330 328 327 314 311 319 324 331 335 338 334 339 342 344 332 308 277 242 220 217 216 218 220 222 220 215 212 213 216 219 220 221 222 218
319 324 332 337 336 334 332 319 311 320 325 333 338 343 341 341 350 355 357 357 346 223 199 204 206 207 208 206 203 204 207 210 214 217 219 222 222 222
319 325 332 338 341 337 332 325 308 317 324 335 339 344 346 340 347 5 18 27 36 136 157 174 179 184 187 186 188 194 200 207 210 215 219 221 223 222
317 324 330 337 342 341 336 332 314 307 319 332 336 343 347 346 330 339 8 40 84 137 151 156 162 165 168 171 175 182 190 200 208 213 218 223 225 222
317 322 328 335 340 342 340 332 326 306 309 321 335 339 345 347 346 322 282 264 231 196 174 166 168 171 173 177 182 189 197 204 209 215 221 225 226 223
316 321 327 333 337 342 343 337 328 318 300 309 321 333 338 343 346 346 322 260 229 212 199 189 184 182 184 188 194 201 209 216 222 224 226 226 224 223
310 316 322 328 333 339 344 344 333 325 308 292 302 316 324 332 339 346 354 13 159 169 169 167 167 169 170 172 177 182 192 201 207 211 213 218 221 223
301 309 316 322 325 332 338 344 343 330 320 300 283 290 302 307 316 320 319 297 171 159 152 149 149 150 153 155 158 161 164 166 167 165 169 179 189 194
297 301 308 316 317 324 330 335 342 339 323 311 292 274 277 284 283 285 275 253 225 200 182 172 168 167 168 168 168 168 172 174 175 176 176 180 184 188
293 295 298 305 309 317 320 324 330 339 334 315 301 280 264 264 266 261 257 251 240 226 215 207 200 196 194 193 193 193 194 194 195 195 195 194 194 196
Height
5516 5503 5492 5483 5475 5467 5460 5454 5448 5449 5446 5441 5438 5433 5427 5422 5419 5418 5417 5417 5418 5421 5424 5429 5435 5442 5452 5462 5474 5488 5503 5518 5533 5546 5559 5573 5583 5594
5495 5485 5477 5469 5462 5455 5450 5444 5439 5435 5430 5429 5424 5420 5414 5408 5404 5404 5403 5403 5404 5406 5408 5412 5417 5422 5428 5437 5447 5459 5475 5492 5508 5522 5536 5551 5561 5573
5480 5473 5466 5458 5451 5444 5439 5433 5428 5422 5414 5415 5408 5403 5400 5395 5390 5387 5387 5388 5389 5391 5393 5398 5402 5406 5411 5417 5425 5435 5448 5466 5483 5499 5513 5528 5539 5550
5468 5462 5454 5447 5440 5434 5428 5421 5415 5409 5401 5395 5395 5388 5384 5381 5377 5373 5371 5371 5372 5374 5377 5383 5386 5391 5396 5401 5408 5416 5426 5440 5459 5475 5489 5508 5517 5529
5457 5450 5443 5436 5430 5423 5416 5409 5402 5396 5389 5381 5380 5373 5368 5365 5362 5359 5356 5355 5355 5356 5360 5366 5370 5377 5382 5388 5393 5401 5410 5421 5437 5449 5467 5484 5497 5513
5446 5439 5433 5426 5418 5412 5404 5396 5389 5383 5377 5370 5366 5361 5357 5352 5348 5345 5344 5341 5340 5340 5343 5349 5354 5361 5367 5374 5381 5387 5396 5405 5415 5429 5446 5460 5474 5490
5436 5429 5422 5415 5407 5399 5392 5385 5378 5371 5366 5361 5356 5351 5345 5339 5333 5330 5328 5327 5327 5326 5327 5331 5336 5344 5352 5360 5367 5375 5383 5392 5401 5412 5426 5443 5457 5472
5426 5420 5412 5405 5397 5389 5381 5374 5368 5361 5356 5351 5346 5340 5333 5326 5320 5315 5313 5311 5313 5311 5313 5316 5321 5329 5337 5345 5354 5364 5372 5381 5389 5398 5410 5424 5440 5445
5418 5411 5403 5394 5387 5378 5371 5365 5358 5353 5348 5343 5337 5330 5322 5314 5308 5303 5299 5298 5299 5299 5299 5302 5306 5315 5322 5331 5342 5352 5360 5369 5378 5387 5396 5408 5420 5428
5409 5401 5394 5385 5377 5369 5363 5357 5350 5346 5341 5334 5327 5320 5312 5305 5298 5292 5289 5286 5286 5286 5287 5291 5295 5304 5311 5321 5331 5339 5348 5357 5367 5376 5385 5394 5406 5414
5400 5393 5385 5376 5368 5361 5355 5349 5344 5339 5334 5327 5320 5312 5304 5297 5289 5284 5280 5278 5277 5278 5280 5284 5289 5297 5304 5313 5321 5328 5336 5345 5355 5365 5374 5383 5393 5402
5393 5386 5378 5370 5361 5354 5348 5342 5338 5334 5328 5322 5314 5306 5299 5292 5285 5279 5276 5274 5273 5275 5277 5280 5284 5291 5299 5306 5313 5319 5327 5335 5345 5355 5365 5373 5382 5391
5387 5380 5372 5364 5355 5348 5342 5336 5333 5329 5323 5317 5310 5302 5296 5289 5282 5277 5273 5271 5271 5271 5273 5277 5280 5286 5293 5300 5307 5312 5318 5327 5336 5346 5355 5364 5372 5380
5380 5374 5366 5358 5350 5343 5337 5331 5328 5324 5319 5313 5307 5300 5294 5288 5282 5277 5273 5271 5270 5270 5272 5274 5278 5283 5288 5294 5300 5305 5312 5320 5329 5339 5347 5355 5362 5370
5374 5368 5360 5353 5345 5338 5332 5327 5324 5320 5315 5310 5304 5298 5292 5288 5283 5278 5275 5273 5272 5272 5272 5274 5277 5281 5285 5290 5295 5302 5309 5317 5326 5334 5342 5349 5354 5360
5368 5362 5356 5349 5341 5335 5328 5323 5320 5316 5312 5308 5302 5297 5292 5287 5284 5281 5278 5276 5275 5274 5275 5276 5278 5281 5284 5289 5295 5301 5308 5315 5323 5330 5337 5343 5348 5354
5362 5357 5351 5344 5337 5330 5324 5320 5316 5313 5310 5306 5301 5297 5292 5288 5284 5282 5281 5279 5279 5279 5279 5279 5281 5283 5287 5291 5296 5301 5307 5314 5320 5326 5331 5336 5341 5347
5357 5353 5347 5341 5334 5327 5321 5316 5312 5309 5306 5304 5300 5296 5292 5288 5285 5282 5281 5281 5280 5281 5281 5282 5284 5286 5289 5293 5297 5302 5306 5311 5316 5321 5326 5330 5334 5339
5352 5347 5342 5337 5331 5325 5319 5313 5309 5305 5303 5301 5298 5295 5292 5289 5286 5283 5281 5280 5281 5281 5282 5283 5285 5287 5290 5293 5296 5300 5304 5308 5311 5315 5319 5323 5328 5332
5345 5342 5337 5333 5328 5322 5317 5311 5306 5302 5299 5297 5296 5294 5292 5289 5287 5285 5283 5282 5282 5282 5282 5283 5285 5287 5290 5293 5295 5298 5301 5304 5306 5309 5313 5317 5321 5325
5339 5336 5332 5328 5324 5319 5314 5309 5303 5299 5295 5293 5292 5292 5290 5289 5288 5286 5285 5284 5284 5284 5285 5286 5287 5289 5292 5294 5297 5299 5301 5303 5305 5308 5311 5314 5318 5322
5332 5329 5326 5322 5319 5315 5311 5306 5301 5297 5293 5290 5288 5288 5287 5287 5286 5286 5286 5286 5286 5286 5287 5288 5290 5291 5293 5295 5298 5300 5302 5304 5307 5309 5312 5316 5319 5322
5324 5322 5319 5316 5313 5310 5307 5303 5299 5294 5290 5286 5284 5283 5283 5283 5283 5284 5284 5285 5285 5286 5287 5288 5290 5292 5294 5296 5298 5300 5302 5304 5307 5309 5312 5315 5318 5321